Hourly Data Report for January 30, 2017

TORONTO CITY
ONTARIO

43°40'00.000" N
79°24'00.000" W
112.50 m
6158355
71508
XTO

Download Data

Hourly Data (January 2017)
Hourly Data Report for January 30, 2017
TIME
LST
Temp Definition
°C
Dew Point Definition
°C
Rel Hum Definition
%
Precip. Amount Definition
mm

Wind Dir Definition
10's deg

Wind Spd Definition
km/h
Visibility Definition
km
Stn Press Definition
kPa
Hmdx Definition


Wind Chill Definition


Weather Definition


00:00 -5.7 -11.4 64 0.0 LegendMM LegendMM   99.47     LegendNANA
01:00 -5.8 -11.6 64 0.0 LegendMM LegendMM   99.44     LegendNANA
02:00 -6.3 -12.7 60 0.0 LegendMM LegendMM   99.45     LegendNANA
03:00 -7.2 -11.3 72 0.0 LegendMM LegendMM   99.51     LegendNANA
04:00 -8.8 -13.2 70 0.0 LegendMM LegendMM   99.57     LegendNANA
05:00 -9.0 -13.6 69 0.0 LegendMM LegendMM   99.60     LegendNANA
06:00 -9.5 -14.0 70 0.0 LegendMM LegendMM   99.65     LegendNANA
07:00 -9.8 -14.5 68 0.0 LegendMM LegendMM   99.69     LegendNANA
08:00 -10.1 -16.3 61 0.0 LegendMM LegendMM   99.75     LegendNANA
09:00 -9.6 -16.1 59 0.0 LegendMM LegendMM   99.83     LegendNANA
10:00 -8.3 -15.8 54 0.0 LegendMM LegendMM   99.89     LegendNANA
11:00 -6.8 -14.7 53 0.0 LegendMM LegendMM   99.93     LegendNANA
12:00 -6.6 -14.3 54 0.0 LegendMM LegendMM   99.89     LegendNANA
13:00 -6.2 -15.2 49 0.0 LegendMM LegendMM   99.85     LegendNANA
14:00 -5.2 -13.5 52 0.0 LegendMM LegendMM   99.81     LegendNANA
15:00 -4.8 -13.3 52 0.0 LegendMM LegendMM   99.83     LegendNANA
16:00 -4.3 -14.1 46 0.0 LegendMM LegendMM   99.86     LegendNANA
17:00 -4.7 -14.0 48 0.0 LegendMM LegendMM   99.88     LegendNANA
18:00 -5.2 -13.6 51 0.0 LegendMM LegendMM   99.93     LegendNANA
19:00 -5.3 -13.1 54 0.0 LegendMM LegendMM   99.99     LegendNANA
20:00 -5.5 -12.8 56 0.0 LegendMM LegendMM   99.93     LegendNANA
21:00 -5.3 -12.3 58 0.0 LegendMM LegendMM   99.85     LegendNANA
22:00 -5.0 -11.6 60 0.0 LegendMM LegendMM   99.84     LegendNANA
23:00 -5.2 -12.9 55 0.0 LegendMM LegendMM   99.87     LegendNANA

Notes on Data Quality.

Legend

  • E = Estimated
  • M = Missing
  • NA = Not Available*
  • [empty] = Indicates an unobserved value
Date modified: